Regional Weather Roundup
Issued by NWS Charleston, SC

Current Version | Previous Version | Graphics & Text | Print | Product List | Glossary On
Versions: 1 2 3 4 5 6 7 8 9 10 11 12 13 14 15 16 17 18 19 20 21 22 23 24 25 26 27 28 29 30 31 32 33 34 35 36 37 38 39 40 41 42 43 44 45 46 47 48 49 50
000
ASUS42 KCHS 281212
RWRCHS

REGIONAL WEATHER ROUNDUP
NATIONAL WEATHER SERVICE CHARLESTON SC
800 AM EDT WED JUN 28 2017

NOTE: "FAIR" INDICATES FEW OR NO CLOUDS BELOW 12,000 FEET WITH NO
SIGNIFICANT WEATHER AND/OR OBSTRUCTIONS TO VISIBILITY.

NOT ALL STATIONS ARE QUALITY CONTROLLED. USE DATA WITH CAUTION...
ESPECIALLY DEWPOINT OBSERVATIONS.

SCZ027-030-031-034>040-042>050-281300-
...SOUTHEAST SOUTH CAROLINA...

CITY           SKY/WX    TMP DP  RH WIND       PRES   REMARKS
N CHARLESTON   PTSUNNY   73  64  73 NE9       30.13R
6HR MIN TEMP:  68; 6HR MAX TEMP:  73;

WATERFRONT PRK   N/A     75  68  78 NE9       30.09R
JOHNS ISLAND   FAIR      75  68  78 N5        30.12R
PINOPOLIS        N/A     73  64  73 E12       30.04R
MONCKS CORNER  FAIR      72  61  68 E7        30.13R
SUMMERVILLE    FAIR      70  64  83 CALM      30.14R
BEAUFORT MCAS  PTSUNNY   75  70  84 NE6       30.12R
6HR MIN TEMP:  71; 6HR MAX TEMP:  76;

BEAUFORT ARPT  FAIR      73  68  83 NE7       30.11R
HILTON HEAD IS MOSUNNY   77  70  78 N9        30.12R
WALTERBORO     PTSUNNY   70  63  78 NE6       30.14R
ALLENDALE      FAIR      72  64  78 VRB3      30.13R

...SOUTHERN MIDLANDS AND PEE DEE...

CITY           SKY/WX    TMP DP  RH WIND       PRES   REMARKS
GEORGETOWN     FAIR      72  64  78 NE3       30.14R
KINGSTREE      FAIR      68  59  73 CALM      30.14R
ORANGEBURG     SUNNY     71  61  70 NE6       30.15R
6HR MIN TEMP:  67; 6HR MAX TEMP:  71;

BARNWELL       FAIR      73  64  73 E6        30.15R
AIKEN          NOT AVBL
MANNING        FAIR      68  63  83 E7        30.15R
COLUMBIA       MOSUNNY   73  57  57 E6        30.15R
6HR MIN TEMP:  66; 6HR MAX TEMP:  75;

SUMTER         MOSUNNY   69  58  69 E7        30.14R
6HR MIN TEMP:  62; 6HR MAX TEMP:  70;

FLORENCE       SUNNY     69  59  70 E7        30.16R
6HR MIN TEMP:  63; 6HR MAX TEMP:  69;

MYRTLE BEACH   SUNNY     72  59  64 NE9       30.14R
N MYRTLE BEACH SUNNY     72  60  66 NE8       30.14R
6HR MIN TEMP:  66; 6HR MAX TEMP:  72;


$$

GAZ063-065-086>088-099>101-113>116-118-119-134>141-150-281300-
...SOUTHEAST GEORGIA...

CITY           SKY/WX    TMP DP  RH WIND       PRES   REMARKS
SAVANNAH ARPT  PTSUNNY   74  69  85 NE9       30.12R
6HR MIN TEMP:  71; 6HR MAX TEMP:  74;

HUNTER AAF     MOSUNNY   76  70  83 NE9       30.09R
6HR MIN TEMP:  71; 6HR MAX TEMP:  76;

FORT STEWART   CLOUDY    72  69  89 NE5       30.09R
6HR MIN TEMP:  69; 6HR MAX TEMP:  72;

STATESBORO     MOSUNNY   73  73 100 CALM      30.13R
SYLVANIA       CLOUDY    73  72  97 E5        30.14R
CLAXTON        FAIR      69  69  98 CALM      30.12R

...CSRA...CENTRAL AND FAR SOUTHEAST GEORGIA...

CITY           SKY/WX    TMP DP  RH WIND       PRES   REMARKS
THOMSON        MOSUNNY   69  65  89 S5        30.20R
AUGUSTA-BUSH   MOSUNNY   72  66  81 CALM      30.14R
6HR MIN TEMP:  67; 6HR MAX TEMP:  72;

AUGUSTA-DANIEL SUNNY     74  57  55 E7        30.16R
SWAINSBORO     FAIR      72  72 100 NE5       30.14R
VIDALIA        MOSUNNY   73  70  88 E5        30.13R
EASTMAN        FAIR      70  70 100 CALM      30.14R
HAZLEHURST     FAIR      73  73 100 E3        30.11R
ALMA           PTSUNNY   71  67  87 VRB3      30.11R
6HR MIN TEMP:  67; 6HR MAX TEMP:  71;

WAYCROSS       MOSUNNY   73  73 100 NE5       30.10R
JESUP          FAIR      72  68  88 NE3       30.11R
BAXLEY         FAIR      72  72 100 NE3       30.12R
BRUNSWICK      MOSUNNY   73  72  94 CALM      30.10R
SAINT SIMONS   MOSUNNY   76  73  91 N7        30.09R
6HR MIN TEMP:  73; 6HR MAX TEMP:  76;


$$

SCZ027-028-034-036>038-045-046-048>050-GAZ119-141-281300-
...LAKE AND SUPPLEMENTAL COASTAL OBSERVATIONS...

STATION/POSITION TIME  TEMP    WIND        PRES    WAVE   SWELL
                       AIR SEA DIR/SP/G            HT/PER HT/PER/DIR
                 (UTC) (F)     (DEG/KT/KT) (MB)    (FT/S) (FT/S/D)
WINYAH BAY       1045   75      60/ 11     1019.0
LAKE MURRAY      1120   69      CALM  /  3 1019.6
ACE BASIN NERRS  1045   70        CALM     1019.0
FORT PULASKI     1148   76 83   30/  9/ 12 1019.5R
SAPELO ISLAND    1100   74      10/  5     1018.0

$$

ANZ835-935-AMZ111-154-330-350-352-354-370-450-454-472-281300-
...C-MAN AND BUOY OBSERVATIONS...

STATION/POSITION TIME  TEMP    WIND        PRES    WAVE   SWELL
                       AIR SEA DIR/SP/G            HT/PER HT/PER/DIR
                 (UTC) (F)     (DEG/KT/KT) (MB)    (FT/S) (FT/S/D)
BUOY 41004       1150   79 81   40/ 12/ 14 1018.9R   2/ 8   2/130/ 8
BUOY 41008       1150   80 82   60/ 14/ 16 1018.4R   2/ 7   2/160/ 7
FOLLY BEACH CMAN 1100   76      40/ 11/ 12 1019.6R
CAPERS NEARSHORE 1108   84 83   50/ 16/ 21 1018.7R
FRIPP NEARSHORE  1108   79 83   40/ 12/ 16 1018.6R


STATION/POSITION TIME  TEMP    WIND        PRES    WAVE   SWELL
                       AIR SEA DIR/SP/G            HT/PER HT/PER/DIR
                 (UTC) (F)     (DEG/KT/KT) (MB)    (FT/S) (FT/S/D)
5E ST. MARYS GA  1130      81                N/A     2/ 5
FRYING PAN BUOY  1150   79 80   40/ 17/ 21 1019.6R   3/ 4   2/130/ 7
BUOY 41025       1150   76 79  360/ 12/ 16 1019.6R   2/ 9   2/150/ 9
CAPE LOOKOUT NC  1100   75      20/  8/ 10 1019.5R
BUOY 41002       1050   79 80  350/  8/  8 1017.7    3/ 7   3/180/ 7
BUOY 41010       1150   82 83  220/  6/ 10 1017.0R   3/ 7   2/140/ 7
ST AUGUSTINE FL  1200   78 78   30/ 10/ 11 1018.4R


$$




USA.gov is the U.S. government's official web portal to all federal, state and local government web resources and services.